Location: Lobstick
(53.6000°N, 115.1667°W)
Time: 10:00:42
(UTC+00:00)

Gurwin Techsat 1B - Pass Details

Date: 08 December 2023
Orbit: 810 x 813 km, 98.9° (Epoch: 21 February)

Event Time Altitude Azimuth Distance (km) Brightness Sun altitude
Rises 12:07:54 0° 12° (NNE) 3,352 12.0 -30.5°
Reaches altitude 10° 12:10:20 10° 6° (N) 2,416 11.1 -30.2°
Enters shadow 12:11:11 15° 3° (N) 2,109 10.8 -30.1°
